Wind_Speed
20 21 21 22 23 24 24 25 25 26 27 27 27 27 27 27 27 27 28 28 28 29 30 30 31 32 31 30 30 30 30 29 29 28 27 27 28 28 28 27 27 28 28
20 21 21 22 23 24 24 26 26 26 27 28 28 28 28 28 28 28 28 29 29 30 30 30 30 31 31 31 31 31 31 30 31 29 29 28 28 28 30 30 30 30 30
20 20 21 21 23 24 25 26 27 28 28 29 29 29 30 29 29 29 29 30 29 29 30 31 30 30 31 32 32 33 32 31 31 31 30 30 29 30 31 31 32 32 32
20 20 21 22 23 24 24 25 26 28 29 29 30 30 31 31 31 31 31 31 30 29 30 30 31 30 30 31 32 33 33 32 31 31 31 32 31 30 31 32 32 33 34
21 22 22 23 24 24 25 26 27 28 29 30 30 31 31 32 32 32 32 31 29 29 29 29 30 31 31 31 31 32 33 33 33 32 32 32 32 32 33 33 33 34 34
22 22 23 24 24 24 25 26 27 28 29 29 29 30 31 32 32 32 32 31 30 29 29 29 29 30 30 31 31 32 33 34 34 34 34 34 34 34 34 34 34 34 34
23 23 23 24 24 25 26 27 28 28 28 29 29 30 30 30 31 31 31 31 30 30 30 30 30 29 30 30 32 32 32 34 35 35 36 35 35 35 34 33 34 34 34
22 22 23 23 24 25 26 26 27 27 26 27 28 28 28 29 29 29 30 29 29 29 29 30 30 30 31 31 32 32 33 33 34 35 35 36 36 35 34 34 34 34 34
21 22 22 23 24 24 25 25 26 26 25 25 26 27 27 28 28 28 28 28 28 29 29 30 30 30 31 31 31 31 32 33 34 34 35 36 35 36 35 34 34 35 35
22 22 23 23 24 24 24 25 25 25 25 26 26 27 27 28 28 28 29 28 28 29 29 30 30 30 31 31 31 31 32 32 32 33 33 34 34 35 36 35 35 35 35
23 23 24 25 25 25 25 25 26 26 26 27 27 28 28 28 28 28 29 29 29 30 30 30 31 31 31 31 32 31 31 31 31 32 33 33 33 34 35 35 35 35 35
24 25 26 26 26 26 26 26 27 27 27 27 28 28 29 28 28 28 28 29 29 29 29 30 31 31 30 30 31 31 31 30 30 31 32 32 32 33 34 34 34 34 35
25 26 27 27 27 27 27 27 27 28 28 28 28 28 28 28 28 27 27 27 28 28 28 28 28 28 28 28 28 29 29 29 29 29 29 30 29 30 31 31 31 32 32
26 26 27 27 27 27 28 28 28 29 29 28 28 27 27 27 27 26 26 25 25 25 25 24 24 24 24 25 25 26 26 27 27 27 26 26 27 27 27 28 28 29 29
25 26 27 27 28 28 28 29 29 29 28 28 27 26 25 24 24 23 22 22 22 22 22 22 22 23 23 23 23 23 23 23 24 24 24 24 25 26 25 26 25 25 26
25 26 27 27 27 28 29 29 29 28 27 26 24 23 22 22 21 21 21 21 21 20 20 20 20 21 21 21 22 21 21 21 21 21 22 22 22 22 23 23 22 22 22
25 26 26 27 27 28 28 27 26 26 25 23 22 21 20 20 19 19 18 18 18 18 19 19 19 19 19 19 19 19 19 19 19 19 19 20 21 21 20 19 20 20 20
26 25 26 26 26 26 26 25 24 23 22 20 19 19 18 18 17 17 17 17 17 17 17 17 17 17 17 17 17 18 18 18 17 18 17 17 17 17 17 17 17 17 17
24 25 25 25 24 24 23 22 21 20 19 18 18 17 17 16 15 14 15 14 15 15 15 16 15 15 15 15 15 15 15 15 14 14 13 13 13 13 13 13 12 12 12
23 23 22 22 21 21 20 20 19 18 17 16 15 15 15 15 13 12 12 12 13 14 14 13 13 13 12 12 12 11 11 10 10 9 10 10 9 8 9 9 8 8 8
21 21 20 19 18 18 18 18 17 16 15 14 13 13 13 12 10 10 10 10 10 11 10 10 9 9 9 9 8 7 6 6 5 5 5 5 4 4 5 5 5 6 7
18 17 17 17 17 16 16 16 15 14 13 12 11 11 10 9 9 8 8 8 8 8 7 7 6 6 5 5 4 3 2 1 2 1 2 3 3 3 3 4 4 4 5
16 15 15 15 15 15 14 13 13 12 11 9 9 8 6 6 6 5 4 4 4 4 5 5 5 5 4 4 3 2 1 1 1 0 0 2 1 1 1 1 3 4 4
13 13 13 13 13 13 12 12 12 10 9 7 6 6 6 5 4 4 3 3 3 3 4 5 5 5 5 4 4 3 3 3 3 2 2 3 2 1 2 1 2 2 3
12 11 12 12 12 11 11 11 10 9 7 7 6 6 6 6 6 6 5 5 5 5 5 6 6 6 6 6 6 6 5 4 4 4 5 4 4 4 4 5 4 4 4
11 10 11 11 10 10 10 9 9 8 7 7 7 7 8 8 8 8 9 9 9 9 9 9 9 9 8 8 8 8 8 7 7 7 7 7 7 7 7 7 6 6 6
Wind_Direction
278 278 279 281 282 283 282 281 280 280 279 280 280 279 278 277 276 275 275 275 276 277 274 272 270 270 267 265 265 267 267 267 265 265 261 257 256 257 257 257 258 258 258
278 280 281 282 283 284 282 281 280 279 279 280 279 278 277 276 276 276 276 277 277 276 275 273 272 270 267 264 264 264 265 267 265 263 261 260 259 259 259 258 258 258 258
284 284 284 284 285 284 283 283 281 280 279 279 279 279 279 277 278 279 279 278 278 276 275 274 272 270 268 266 264 263 263 265 264 263 261 262 262 260 260 260 259 258 259
288 289 287 286 287 285 286 285 284 282 281 280 279 278 278 278 278 278 280 278 278 276 274 273 270 269 268 266 264 264 263 262 262 263 262 262 262 262 261 261 260 260 261
290 290 289 289 288 287 286 285 285 284 282 281 280 279 278 278 279 278 279 280 279 277 275 273 271 269 269 268 266 266 263 261 261 261 261 263 263 263 263 262 262 262 264
291 291 291 290 289 288 287 286 285 285 284 282 281 280 280 279 279 278 278 280 279 276 275 274 273 271 270 268 266 266 266 263 262 262 262 263 263 262 264 262 263 263 263
292 291 292 292 291 290 290 288 288 288 286 283 282 281 281 280 280 280 279 279 277 275 274 275 274 272 271 269 268 267 267 266 265 265 264 263 265 264 265 265 264 264 263
293 293 293 294 294 293 292 291 291 290 288 285 284 283 284 283 283 282 281 281 279 277 275 276 275 274 272 272 271 269 269 269 267 265 263 264 266 265 265 265 265 265 264
295 296 296 296 297 297 296 294 295 294 289 288 288 286 286 286 284 284 282 281 279 278 277 276 275 275 275 273 273 272 271 270 267 265 263 263 265 265 265 265 266 266 267
297 297 298 298 299 298 297 297 296 294 292 291 289 287 287 287 286 285 283 282 280 280 279 279 279 279 278 276 275 274 272 269 267 266 265 264 266 266 265 265 265 265 266
300 299 298 299 299 298 298 297 296 296 295 294 291 288 287 286 286 286 284 283 281 280 280 280 280 280 278 276 275 275 273 270 269 267 266 266 265 265 265 265 266 266 266
300 299 299 299 299 298 298 297 296 296 295 295 293 291 289 287 286 285 284 283 282 282 281 281 281 280 278 277 275 274 273 273 271 269 267 267 267 266 266 266 267 267 267
300 300 300 300 300 299 298 299 298 297 296 295 293 291 289 288 287 286 286 284 283 283 283 283 282 281 280 279 277 276 275 273 272 271 269 268 268 266 265 266 267 267 268
300 301 301 301 300 300 300 301 300 298 296 295 293 290 289 287 287 286 285 285 285 284 285 284 283 284 283 281 279 278 276 274 272 271 269 268 266 266 265 265 266 267 268
300 302 302 301 301 301 302 301 301 299 297 295 294 292 289 288 287 287 286 286 287 286 285 285 286 286 285 284 281 279 278 275 272 269 268 267 266 267 266 267 267 268 269
302 303 302 302 302 303 303 302 301 300 298 297 294 292 291 290 289 288 287 286 286 286 286 286 286 286 285 283 281 280 279 279 275 272 271 270 268 268 270 270 270 270 271
305 305 304 303 303 304 304 303 303 301 299 297 294 292 291 292 290 290 289 287 287 287 288 286 285 285 285 283 282 281 281 278 274 272 270 269 268 268 271 273 274 273 272
306 306 306 306 305 305 306 306 305 303 299 296 294 293 292 292 291 290 290 291 289 288 289 289 288 287 286 286 284 283 280 276 273 271 269 268 266 265 267 270 271 270 270
309 308 308 307 307 308 309 309 308 304 300 297 295 294 293 293 291 292 293 294 293 292 293 292 290 289 289 287 287 288 283 276 273 271 266 263 263 264 263 264 264 266 266
310 311 311 312 311 312 313 313 312 309 305 301 298 297 296 297 296 295 297 298 298 297 297 296 294 294 294 293 290 287 283 276 270 264 260 260 259 260 259 261 264 266 271
313 315 316 317 318 318 318 319 318 315 312 308 309 308 304 300 298 297 300 301 302 304 305 306 306 305 305 303 297 288 280 268 262 259 254 248 246 252 258 265 270 277 282
319 321 323 323 325 326 325 323 323 322 319 317 317 315 311 304 302 302 303 305 309 318 321 323 322 323 324 324 316 304 296 249 242 254 250 233 225 237 254 272 282 296 301
322 325 328 330 331 332 334 334 333 331 328 327 328 331 331 324 324 325 324 326 330 336 343 351 354 358 0 2 4 11 45 78 95 106 140 180 175 187 267 284 304 308 314
329 332 334 337 339 342 345 345 346 348 349 352 360 5 7 12 21 22 23 27 22 12 10 15 20 22 23 26 46 68 75 77 83 89 104 103 89 76 57 43 14 5 -0
337 342 345 347 348 350 353 356 358 2 6 14 22 31 40 47 49 49 48 48 49 40 38 37 42 46 50 58 65 69 72 78 77 80 90 86 80 75 72 65 59 48 40
350 351 352 354 357 1 4 8 14 20 27 36 45 53 56 60 60 59 61 62 64 62 59 60 63 63 63 63 67 69 72 76 80 77 81 83 82 76 75 72 69 63 57
Height
5838 5838 5838 5838 5838 5837 5837 5837 5837 5836 5836 5835 5835 5834 5833 5833 5832 5831 5831 5831 5830 5829 5829 5829 5829 5829 5830 5830 5831 5831 5833 5834 5834 5835 5836 5837 5838 5840 5841 5842 5843 5845 5846
5834 5833 5834 5834 5833 5832 5832 5831 5831 5830 5830 5829 5828 5828 5827 5826 5826 5825 5825 5824 5823 5823 5822 5822 5822 5822 5822 5823 5824 5825 5826 5826 5827 5828 5829 5831 5833 5834 5835 5836 5837 5838 5839
5830 5829 5829 5829 5829 5828 5827 5826 5825 5824 5823 5823 5822 5821 5821 5820 5819 5819 5818 5817 5816 5816 5816 5815 5815 5815 5815 5816 5817 5818 5818 5819 5820 5821 5822 5824 5826 5826 5828 5829 5830 5831 5833
5827 5826 5825 5825 5824 5823 5821 5820 5819 5818 5817 5816 5815 5815 5814 5814 5813 5812 5811 5811 5809 5809 5809 5808 5808 5808 5808 5809 5810 5810 5811 5812 5813 5814 5815 5816 5818 5819 5820 5822 5822 5824 5825
5823 5822 5821 5820 5819 5817 5816 5815 5813 5812 5811 5810 5809 5808 5807 5806 5806 5805 5804 5804 5803 5802 5802 5801 5801 5801 5801 5801 5802 5802 5803 5804 5806 5807 5807 5808 5810 5811 5812 5814 5815 5815 5817
5819 5817 5816 5815 5813 5812 5810 5809 5807 5806 5804 5803 5802 5801 5800 5799 5798 5798 5797 5796 5796 5795 5795 5794 5794 5794 5794 5794 5794 5795 5795 5796 5797 5799 5800 5801 5802 5803 5804 5805 5806 5807 5809
5814 5813 5811 5810 5808 5806 5805 5803 5801 5799 5797 5796 5795 5794 5793 5792 5791 5790 5790 5789 5788 5788 5787 5787 5787 5786 5786 5786 5787 5787 5787 5788 5789 5790 5792 5793 5794 5795 5796 5797 5798 5799 5800
5810 5808 5806 5804 5803 5800 5799 5797 5794 5792 5790 5789 5788 5787 5786 5785 5784 5783 5782 5781 5781 5780 5780 5780 5779 5779 5779 5779 5779 5779 5780 5780 5781 5782 5783 5785 5786 5787 5788 5789 5790 5791 5792
5806 5804 5802 5800 5797 5795 5793 5791 5789 5786 5784 5783 5782 5781 5779 5778 5777 5776 5775 5774 5773 5773 5773 5772 5772 5771 5771 5771 5771 5771 5772 5772 5773 5774 5775 5776 5777 5779 5780 5781 5782 5783 5784
5801 5799 5797 5795 5792 5790 5788 5785 5783 5780 5778 5777 5775 5774 5772 5771 5770 5768 5767 5767 5766 5766 5765 5764 5764 5763 5763 5763 5763 5763 5764 5764 5765 5766 5766 5768 5769 5770 5771 5772 5773 5774 5776
5797 5794 5792 5790 5787 5785 5782 5780 5777 5775 5772 5770 5769 5767 5765 5764 5763 5761 5760 5759 5758 5757 5757 5756 5756 5755 5755 5755 5755 5755 5755 5756 5756 5757 5758 5759 5760 5761 5762 5763 5764 5765 5766
5792 5789 5787 5784 5781 5779 5776 5774 5771 5769 5766 5764 5762 5760 5758 5756 5755 5754 5752 5751 5750 5749 5748 5748 5747 5747 5746 5746 5746 5746 5747 5747 5748 5748 5749 5751 5751 5753 5754 5755 5756 5757 5758
5787 5784 5781 5778 5776 5773 5770 5767 5765 5762 5760 5757 5755 5752 5750 5749 5747 5746 5744 5743 5742 5741 5740 5740 5739 5739 5738 5738 5738 5738 5738 5738 5739 5740 5741 5742 5743 5744 5746 5747 5747 5748 5749
5781 5778 5775 5772 5770 5767 5764 5761 5758 5755 5752 5750 5747 5745 5743 5741 5740 5739 5737 5736 5735 5734 5733 5733 5732 5732 5731 5731 5730 5730 5730 5731 5731 5732 5733 5734 5735 5736 5738 5739 5740 5741 5741
5775 5772 5769 5766 5763 5760 5757 5754 5751 5748 5745 5742 5740 5738 5736 5734 5733 5732 5731 5730 5729 5728 5727 5727 5726 5725 5725 5724 5724 5723 5723 5723 5724 5725 5726 5727 5728 5728 5730 5731 5732 5733 5734
5769 5766 5763 5760 5757 5754 5751 5747 5744 5741 5738 5735 5733 5731 5730 5728 5727 5726 5725 5724 5723 5722 5722 5721 5720 5719 5719 5718 5717 5717 5717 5717 5718 5718 5719 5720 5721 5722 5723 5724 5725 5726 5727
5764 5761 5758 5755 5751 5748 5744 5741 5737 5734 5732 5729 5727 5726 5724 5723 5722 5721 5720 5719 5718 5717 5716 5715 5715 5714 5713 5712 5712 5712 5711 5712 5712 5713 5713 5714 5715 5716 5717 5718 5719 5720 5721
5759 5755 5752 5749 5745 5742 5738 5735 5731 5728 5726 5724 5722 5720 5719 5718 5717 5716 5715 5714 5713 5712 5711 5710 5709 5709 5708 5708 5707 5707 5707 5707 5707 5708 5709 5710 5710 5711 5712 5714 5714 5715 5716
5753 5750 5747 5743 5740 5736 5733 5729 5726 5723 5721 5719 5717 5716 5715 5713 5712 5712 5711 5710 5709 5708 5707 5706 5705 5704 5704 5703 5703 5702 5702 5702 5703 5704 5705 5706 5706 5707 5708 5709 5710 5711 5711
5749 5745 5742 5738 5735 5732 5728 5725 5722 5719 5717 5715 5713 5712 5711 5710 5709 5708 5707 5706 5705 5704 5704 5702 5702 5701 5700 5700 5699 5699 5699 5699 5700 5700 5701 5702 5703 5704 5705 5706 5707 5708 5708
5744 5741 5738 5734 5731 5728 5725 5722 5719 5716 5714 5712 5711 5709 5708 5707 5706 5706 5705 5704 5703 5702 5701 5700 5699 5699 5698 5697 5697 5697 5697 5697 5697 5698 5699 5700 5701 5702 5703 5704 5705 5706 5706
5741 5738 5735 5731 5728 5725 5722 5719 5717 5714 5712 5710 5708 5707 5706 5705 5704 5704 5703 5702 5701 5700 5699 5699 5698 5697 5697 5696 5696 5695 5696 5696 5696 5697 5698 5699 5700 5701 5702 5703 5703 5704 5704
5738 5735 5732 5729 5726 5723 5721 5718 5715 5713 5711 5709 5707 5706 5705 5704 5703 5703 5702 5701 5701 5700 5699 5698 5698 5697 5696 5696 5695 5695 5695 5696 5696 5697 5697 5698 5699 5700 5701 5702 5702 5702 5703
5736 5734 5731 5728 5725 5723 5720 5717 5715 5712 5710 5709 5707 5706 5705 5704 5703 5703 5702 5701 5701 5700 5700 5699 5698 5698 5697 5696 5696 5696 5696 5696 5697 5697 5698 5698 5699 5700 5701 5701 5702 5702 5702
5735 5732 5730 5727 5725 5722 5720 5717 5715 5713 5711 5709 5708 5707 5706 5705 5705 5704 5703 5702 5702 5701 5701 5700 5699 5699 5698 5698 5698 5698 5698 5698 5698 5699 5699 5700 5700 5701 5701 5702 5702 5702 5702
5734 5732 5729 5727 5725 5723 5720 5718 5716 5714 5712 5711 5710 5709 5708 5708 5707 5706 5705 5704 5704 5703 5702 5702 5701 5701 5700 5700 5700 5700 5700 5700 5700 5700 5701 5701 5702 5702 5703 5703 5703 5703 5703